Location: Treviso
(45.6669°N, 12.2430°E)
Time: 22:57:58
(UTC+01:00)

ISS - Pass Details

Date: 26 November 2023
Orbit: 415 x 417 km, 51.6° (Epoch: 06 December)

Event Time Altitude Azimuth Distance (km) Brightness Sun altitude
Rises 19:04:18 0° 296° (WNW) 2,363 1.0 -26.2°
Reaches altitude 10° 19:06:31 10° 305° (NW) 1,499 -0.3 -26.6°
Enters shadow 19:07:26 16° 313° (NW) 1,170 -1.1 -26.7°
